SAVANNAH RIVER AT USACE DOCK AT GA US USGS current weather conditions

sailwx.info

Wind from 256 at 0 knots

Air temperature 5.1° C

Last reported at 2020-Jan-20 09:30 UTC.
Time now 2020-Jan-20 10:22 UTC

Location: N 32°05' W 081°05'.
View on Google Maps.

See reports from other nearby stations

  
Tides and Currents Weather Stations Pressure Air Temp Water Temp Dewpoint Dewpoint Depression Visibility Wind Speed Wind Dir Waves Ship Positions
date/time (UTC)wind fromknots sea level pressurealtimeterstation pressurevisibilityair tempwater tempwave heightnotes
2020-Jan-20 09:30 256 0 5.1
2020-Jan-20 08:30 321 2 5.8
2020-Jan-20 07:30 267 4 6.4
2020-Jan-20 06:30 307 4 7.1
2020-Jan-20 05:30 293 6 8.0
2020-Jan-20 04:30 283 6 8.7
2020-Jan-20 03:30 294 6 9.5
2020-Jan-20 02:30 304 11 10.1
2020-Jan-20 01:30 303 7 10.8
2020-Jan-20 00:30 298 10 11.3
2020-Jan-19 23:30 296 12 12.2
2020-Jan-19 22:30 288 13 13.9
2020-Jan-19 21:30 311 13 15.4
2020-Jan-19 20:30 298 14 16.3
2020-Jan-19 19:30 301 8 15.8
2020-Jan-19 18:30 282 7 15.7
2020-Jan-19 17:30 290 8 16.1
2020-Jan-19 16:30 282 8 16.5
2020-Jan-19 15:30 262 10 18.7
2020-Jan-19 14:30 261 7 18.4
2020-Jan-19 13:30 243 4 18.2
2020-Jan-19 12:30 250 4 18.2
2020-Jan-19 11:30 192 4 18.3
2020-Jan-19 10:30 299 4 18.4
2020-Jan-19 09:30 210 4 18.6
2020-Jan-19 08:30 225 6 18.8
2020-Jan-19 07:30 214 5 18.6
2020-Jan-19 06:30 273 6 19.1
2020-Jan-19 05:30 222 8 19.1
2020-Jan-19 04:30 198 4 19.2
2020-Jan-19 03:30 223 3 18.8
2020-Jan-19 02:30 231 13 18.5
2020-Jan-19 01:30 193 3 17.3
2020-Jan-19 00:30 124 2 16.7
2020-Jan-18 23:30 215 4 17.5
2020-Jan-18 22:30 158 6 18.6
2020-Jan-18 21:30 156 8 19.0
2020-Jan-18 20:30 172 4 19.2
2020-Jan-18 19:30 160 6 18.6
2020-Jan-18 18:30 119 3 17.0
2020-Jan-18 17:30 059 4 15.5
2020-Jan-18 16:30 126 3 13.8
2020-Jan-18 15:30 029 2 11.8
2020-Jan-18 14:30 057 1 9.9
2020-Jan-18 13:30 043 3 8.0
2020-Jan-18 12:30 020 3 7.4
2020-Jan-18 11:30 126 1 7.9
2020-Jan-18 10:30 034 2 7.8